STARLINK-11197, 60186

Orbit data source: Space-Track

STARLINK-11197, 60186 is a payload satellite owned by SpaceX/Seattle (US) in LEO that was launched on Wed, 03 Jul 2024 UTC via an FALCON 9 launch vehicle from the Air Force Eastern Test Range (AFETR). Payload-class satellites include a variety of spacecraft equipped with specific instruments for various scientific and technological missions. These include communications satellites like Starlink; space stations such as the ISS; scientific satellites like the Hubble; Earth observation satellites from companies like Planet Labs, Umbra, and HawkEye 360; GPS; miniature CubeSats for education and research; and military/defense satellites.

Loading next visibility...
Identifier
60186, 2024-124D
Orbit
LEO
Last TLE update
10 hours ago
Origin
Manufacturer
SpaceX/Seattle
Mission
Operational Commercial Communications
Bus & Motor
STARLINK V2M, Unknown motor
Mass
730 kg wet, ~700 kg dry
Launch date (UTC)
2024-07-03 (1 year ago)
Launch vehicle
FALCON 9
Launch site
Air Force Eastern Test Range (AFETR)
Object type
Payload
Rocket body
Debris
Shape & HBR
Box + 2 Pan, 29 m
Radar Cross Section
36.964 m², Large (>1 m²)

Expand to show TLE details & history

TLE from 10 hours ago
0 STARLINK-11197
1 60186U 24124D   25182.80793842 -.00000975  00000-0 -31981-5 0  9993
2 60186  53.1584 317.7648 0000500  84.4066 275.7009 15.69704289 57135
Epoch: 2025-07-01T19:23Z
TLE epoch observation values (Epoch: 2025-07-01T19:23:25.879Z)
Latitude
-0.00002°
Longitude
106.80887°
Altitude
360.625 km
Speed
7.694 km/s
True Right ascension
21h 11m 03s
True Declination
0° 00' 00"
Sunlit
Object was in full shadow at epoch
Visualization orbit readout
Latitude
-43.40182°
Longitude
59.86631°
Altitude
374.58 km
Speed
7.684 km/s
Apparent Right ascension
23h 42m 31s
Apparent Declination
-85° 34' 24"
Sunlit
Object is in full shadow
Visualization observer readout
Local Sidereal Time
17:31:51
Azimuth
174.225° S
Elevation
-39.979°
Doppler factor
1
Orbital elements
Apogee altitude
360.341 km
Perigee altitude
359.667 km
Semi-major axis
6,738.141 km
Eccentricity
0.00005
Inclination
53.1584°
RAAN
317.7648°
Arg. of periapsis
84.4066°
True anomaly
Unknown
Mean anomaly
275.7009°
Eccentric anomaly
Unknown
Mean motion
3.92404 °/min
Orbital period
91.74 mins
BSTAR
-0.0000031981
Loading maneuver chart data...
Loading SW <> Apogee altitude chart data...
Loading historical data...
Loading historical data...
Loading historical data...
Loading historical data...
Loading historical data...
Loading historical data...
Loading historical data...

STARLINK-11197 Visibility forecast

Observer location: undefined°, undefined°

Span
Click to sort rows by Start time (UTC) header in descending order
Start Az.
Max El. time (UTC)
Max El. Az.
Max El.
End time (UTC)
End Az.
4 mins2025-07-02 18:50:12.981Z290.062° WNW2025-07-02 18:51:12.981Z257.015° W36.409°2025-07-02 18:54:12.981Z146.791° SSE
|